Showing default

IRIDE-MS2-HEO-13, 68985

AKA "IRIDE-MS2-HEO-13" on Space-Track | Orbit data source: Space-Track

IRIDE-MS2-HEO-13, 68985 is an Italian payload satellite in SSO that was launched on Sun, 03 May 2026 UTC via an FALCON 9 launch vehicle from the Air Force Western Test Range (AFWTR). Payload-class satellites include a variety of spacecraft equipped with specific instruments for various scientific and technological missions. These include communications satellites like Starlink; space stations such as the ISS; scientific satellites like the Hubble; Earth observation satellites from companies like Planet Labs, Umbra, and HawkEye 360; GPS; miniature CubeSats for education and research; and military/defense satellites.

Loading next visibility...
Identifier
68985, 2026-100F
Orbit
SSO
Country
Flag of ITIT
Related business
Manufacturer
ArgoTec
Mission
Operational Civil Imaging
Bus & Motor
HAWK, Unknown motor
Mass
65 kg wet, 65 kg dry
Launch date (UTC)
2026-05-03 (4 months ago)
Launch vehicle
FALCON 9
Launch site
Air Force Western Test Range (AFWTR)
Object type
Payload
Rocket body
Debris
Shape & HBR
Box + 2 Pan, 3.0 m
Radar Cross Section
0.683 m², Medium (>0.1 m² and < 1m²)

Expand to show TLE details & history
Last TLE update: 18 hours ago

TLE from 18 hours ago
0 IRIDE-MS2-HEO-13
1 68985U 26100F   26237.50065863  .00002751  00000-0  27862-3 0  9991
2 68985  97.7272 133.6337 0000476 236.4559 123.6614 14.91741765 17038
Epoch: 2026-08-25T12:00Z
TLE epoch observation values (Epoch: 2026-08-25T12:00:56.905Z)
Latitude
-0.00008°
Longitude
-20.37051°
Altitude
595.731 km
Speed
7.562 km/s
True Right ascension
08h 54m 32s
True Declination
0° 00' 00"
Sunlit
Object was in daylight at epoch
Visualization orbit readout
Latitude
Unknown
Longitude
Unknown
Altitude
Unknown
Speed
Unknown
Apparent Right ascension
Unknown
Apparent Declination
Unknown
Sunlit
N/A
Visualization observer readout
Local Sidereal Time
21:32:19
Azimuth
Unknown
Elevation
Unknown
Doppler factor
Unknown
Orbital elements
Apogee altitude
589.854 km
Perigee altitude
589.19 km
Semi-major axis
6,967.659 km
Eccentricity
0.00005
Inclination
97.7272°
RAAN
133.6337°
Arg. of periapsis
236.4559°
True anomaly
123.66594°
Mean anomaly
123.6614°
Eccentric anomaly
123.66367°
Mean motion
3.73175 °/min
Orbital period
96.47 mins
BSTAR
0.00027862
Loading maneuver chart data...
Computing Atmospheric mass density...
Loading historical data...
Loading historical data...
Loading historical data...
Loading historical data...
Loading historical data...
Loading historical data...
Loading historical data...

Documentation

Showing up to 5 results
|